Location: Moscow
(55.7500°N, 37.5830°E)
Time: 04:50:36
(UTC+03:00)

Envisat - Pass Details

Date: 24 October 2021
Orbit: 764 x 766 km, 98.2° (Epoch: 28 November)

Event Time Altitude Azimuth Distance (km) Brightness Sun altitude
Rises 05:34:17 0° 17° (NNE) 3,248 6.5 -15.3°
Reaches altitude 10° 05:36:38 10° 21° (NNE) 2,317 5.8 -15.0°
Maximum altitude 05:41:41 61° 102° (ESE) 867 3.6 -14.2°
Drops below altitude 10° 05:46:43 10° 183° (S) 2,299 5.5 -13.5°
Sets 05:49:02 0° 187° (S) 3,220 6.2 -13.2°
